This demonstration page uses our WeatherBlox Daily Observations layout. Learn more.

Left ArrowRight Arrow

38.80484, -77.04692

Hourly Observations for May 18, 2022

Temp ( °F °C ) Dew Point ( °F °C ) Humidity (%) Winds ( mph kmh ) Pressure ( in mb ) Visibility ( mi km ) Precip ( " mm )
12:52 am 00:52 Clear 65 18.3 43 6.1 45 45 NNW 8 13 29.96 1015 10 16 0.00 0.00
1:52 am 01:52 Clear 62 16.7 43 6.1 50 50 NNW 9 15 29.97 1015 10 16 0.00 0.00
2:52 am 02:52 Clear 61 16.1 43 6.1 52 52 NNW 8 13 29.98 1015 10 16 0.00 0.00
3:52 am 03:52 Clear 59 15 42 5.6 54 54 NNW 8 13 30.01 1016 10 16 0.00 0.00
4:52 am 04:52 Clear 59 15 41 5 51 51 NNW 8 13 30.02 1017 10 16 0.00 0.00
5:52 am 05:52 Mostly Clear 58 14.4 41 5 53 53 NNW 10 17 30.03 1017 10 16 0.00 0.00
6:52 am 06:52 Mostly Sunny 60 15.6 40 4.4 47 47 NNW 7 11 30.05 1018 10 16 0.00 0.00
7:52 am 07:52 Mostly Sunny 62 16.7 41 5 46 46 N 5 7 30.08 1019 10 16 0.00 0.00
8:52 am 08:52 Mostly Cloudy 64 17.8 40 4.4 41 41 N 8 13 30.09 1019 10 16 0.00 0.00
9:52 am 09:52 Mostly Cloudy 65 18.3 39 3.9 39 39 Calm 30.09 1019 10 16 0.00 0.00
10:52 am 10:52 Mostly Cloudy 68 20 42 5.6 39 39 NNE 8 13 30.07 1018 10 16 0.00 0.00
11:52 am 11:52 Mostly Cloudy 68 20 41 5 38 38 S 6 9 30.05 1018 10 16 0.00 0.00
12:52 pm 12:52 Mostly Cloudy 70 21.1 43 6.1 38 38 ESE 6 9 30.02 1017 10 16 0.00 0.00
1:52 pm 13:52 Mostly Cloudy 73 22.8 44 6.7 35 35 SSE 5 7 30.00 1016 10 16 0.00 0.00
2:52 pm 14:52 Mostly Cloudy 74 23.3 48 8.9 40 40 S 8 13 29.99 1016 10 16 0.00 0.00
3:52 pm 15:52 Cloudy 72 22.2 49 9.4 44 44 S 6 9 29.97 1015 10 16 0.00 0.00
4:52 pm 16:52 Cloudy 71 21.7 47 8.3 42 42 SW 9 15 29.96 1015 10 16 0.00 0.00
5:52 pm 17:52 Cloudy 71 21.7 48 8.9 44 44 S 6 9 29.93 1014 10 16 0.00 0.00
6:52 pm 18:52 Mostly Cloudy 71 21.7 50 10 47 47 S 7 11 29.91 1013 10 16 0.00 0.00
7:52 pm 19:52 Mostly Cloudy 70 21.1 50 10 49 49 SSE 5 7 29.89 1012 10 16 0.00 0.00
8:52 pm 20:52 Mostly Cloudy 69 20.6 51 10.6 53 53 SSE 7 11 29.88 1012 10 16 0.00 0.00
9:52 pm 21:52 Cloudy 67 19.4 52 11.1 59 59 SSE 9 15 29.88 1012 10 16 0.00 0.00
10:52 pm 22:52 Cloudy 67 19.4 52 11.1 59 59 SSE 8 13 29.86 1011 10 16 0.00 0.00
11:52 pm 23:52 Cloudy with Light Rain 66 18.9 52 11.1 61 61 SSE 9 15 29.83 1010 10 16 0.00 0.00

Powered by AerisWeather